02:38 MESZ | 31.08.2026 Profi-Wetter| Mobile Seite| Kontakt| Impressum| Datenschutz
Social

Wetterstation Sevilla Aeropuerto

aktuelles Wetter
  Temperatur Wetter Niederschlag Luftdruck Wind
Mo, 02:00 Uhr 23° - 0 mm 1016 hPa 11 km/h S
Mo, 01:00 Uhr 25° - - 1016 hPa 0 km/h S
Mo, 00:00 Uhr 26° - - 1016 hPa 8 km/h S
So, 23:00 Uhr 27° 0 mm 1015 hPa 11 km/h SW
So, 22:00 Uhr 29° - - 1015 hPa 17 km/h SW
So, 21:00 Uhr 33° - - 1014 hPa 21 km/h SW
So, 20:00 Uhr 35° 0 mm 1014 hPa 21 km/h SW
So, 19:00 Uhr 36° - - 1014 hPa 21 km/h SW
So, 18:00 Uhr 36° - - 1014 hPa 8 km/h SW
So, 17:00 Uhr 36° 0 mm 1015 hPa 8 km/h S
So, 16:00 Uhr 35° - - 1016 hPa 9 km/h W
So, 15:00 Uhr 34° - - 1016 hPa 8 km/h W
So, 14:00 Uhr 33° 0 mm 1017 hPa 5 km/h SW
So, 13:00 Uhr 31° - - 1017 hPa 4 km/h S
So, 12:00 Uhr 31° - - 1017 hPa 4 km/h NO
So, 11:00 Uhr 28° 0 mm 1018 hPa 5 km/h O
So, 10:00 Uhr 25° - - 1017 hPa 2 km/h NO
So, 09:00 Uhr 21° - - 1017 hPa 5 km/h N
So, 08:00 Uhr 19° 0 mm 1017 hPa 0 km/h N
So, 07:00 Uhr 19° - - 1017 hPa 8 km/h SO

Alle Zeitangaben MESZ